• In Belarus
  • List of Countries
  • For 7 days
  • Water Temperature
  • Satellite Maps
  • Weather Map
  • Weather Widgets
  • user-avatar
    Login

    Hourly Weather Uige

    Today, 21 October, Saturday

    Time Temperature Precipitation Wind Pressure Humidity
    00:00 +24°C° 0.1 mm 1 mps 692 mmHg 82%
    01:00 +22°C° 0 mm 1 mps 692 mmHg 87%
    02:00 +22°C° 0 mm 1 mps 692 mmHg 89%
    03:00 +22°C° 0 mm 1 mps 692 mmHg 91%
    04:00 +19°C° 0 mm 0 mps 692 mmHg 94%
    05:00 +22°C° 0 mm 1 mps 692 mmHg 89%
    06:00 +23°C° 0 mm 1 mps 692 mmHg 85%
    07:00 +24°C° 0 mm 1 mps 693 mmHg 79%
    08:00 +28°C° 0 mm 1 mps 693 mmHg 68%
    09:00 +31°C° 0 mm 1 mps 693 mmHg 56%
    10:00 +34°C° 0 mm 1 mps 694 mmHg 45%
    11:00 +34°C° 0 mm 1 mps 693 mmHg 44%
    12:00 +34°C° 0 mm 1 mps 692 mmHg 44%
    13:00 +32°C° 0 mm 0 mps 691 mmHg 43%
    14:00 +33°C° 0 mm 1 mps 691 mmHg 46%
    15:00 +32°C° 0 mm 1 mps 690 mmHg 49%
    16:00 +31°C° 0 mm 1 mps 690 mmHg 52%
    17:00 +29°C° 0.7 mm 1 mps 690 mmHg 61%
    18:00 +27°C° 0.7 mm 1 mps 690 mmHg 70%
    19:00 +25°C° 0.7 mm 1 mps 690 mmHg 79%
    20:00 +25°C° 0.2 mm 1 mps 691 mmHg 82%
    21:00 +24°C° 0.2 mm 1 mps 692 mmHg 85%
    22:00 +24°C° 0.2 mm 1 mps 692 mmHg 88%
    23:00 +23°C° 0.1 mm 2 mps 692 mmHg 90%

    Tomorrow, 22 October, Sunday

    Time Temperature Precipitation Wind Pressure Humidity
    00:00 +23°C° 0.1 mm 2 mps 692 mmHg 92%
    01:00 +21°C° 0.1 mm 2 mps 692 mmHg 93%
    02:00 +21°C° 0.1 mm 2 mps 692 mmHg 93%
    03:00 +21°C° 0.1 mm 2 mps 692 mmHg 93%
    04:00 +21°C° 0.1 mm 2 mps 691 mmHg 92%
    05:00 +21°C° 0.4 mm 2 mps 692 mmHg 92%
    06:00 +21°C° 0.4 mm 2 mps 692 mmHg 92%
    07:00 +21°C° 0.4 mm 2 mps 693 mmHg 92%
    08:00 +25°C° 0.3 mm 1 mps 693 mmHg 81%
    09:00 +28°C° 0.3 mm 1 mps 694 mmHg 70%
    10:00 +31°C° 0.3 mm 1 mps 694 mmHg 58%
    11:00 +33°C° 0.7 mm 1 mps 694 mmHg 52%
    12:00 +35°C° 0.7 mm 1 mps 693 mmHg 45%
    13:00 +37°C° 0.7 mm 1 mps 693 mmHg 39%
    14:00 +35°C° 0 mm 1 mps 692 mmHg 41%
    15:00 +34°C° 0 mm 1 mps 691 mmHg 43%
    16:00 +33°C° 0 mm 1 mps 690 mmHg 46%
    17:00 +31°C° 0.3 mm 1 mps 690 mmHg 54%
    18:00 +29°C° 0.3 mm 1 mps 690 mmHg 62%
    19:00 +27°C° 0.3 mm 1 mps 690 mmHg 70%
    20:00 +26°C° 0.7 mm 1 mps 690 mmHg 75%
    21:00 +25°C° 0.7 mm 1 mps 691 mmHg 80%
    22:00 +24°C° 0.7 mm 2 mps 691 mmHg 85%
    23:00 +24°C° 0.2 mm 2 mps 691 mmHg 88%

    Day after tomorrow, 23 October, Monday

    Time Temperature Precipitation Wind Pressure Humidity
    00:00 +23°C° 0.2 mm 1 mps 691 mmHg 90%
    01:00 +23°C° 0.2 mm 1 mps 691 mmHg 93%
    02:00 +22°C° 0 mm 1 mps 690 mmHg 94%
    03:00 +22°C° 0 mm 1 mps 690 mmHg 95%
    04:00 +22°C° 0 mm 1 mps 690 mmHg 96%
    05:00 +22°C° 0 mm 1 mps 691 mmHg 93%
    06:00 +23°C° 0 mm 1 mps 691 mmHg 91%
    07:00 +23°C° 0 mm 1 mps 692 mmHg 88%
    08:00 +26°C° 0.1 mm 1 mps 692 mmHg 78%
    09:00 +28°C° 0.1 mm 1 mps 693 mmHg 67%
    10:00 +31°C° 0.1 mm 1 mps 693 mmHg 56%
    11:00 +32°C° 0.3 mm 1 mps 692 mmHg 52%
    12:00 +34°C° 0.3 mm 1 mps 692 mmHg 47%
    13:00 +35°C° 0.3 mm 1 mps 691 mmHg 42%
    14:00 +34°C° 0.1 mm 1 mps 691 mmHg 44%
    15:00 +33°C° 0.1 mm 1 mps 690 mmHg 46%
    16:00 +32°C° 0.1 mm 1 mps 689 mmHg 49%
    17:00 +30°C° 0.1 mm 1 mps 690 mmHg 57%
    18:00 +28°C° 0.1 mm 1 mps 690 mmHg 64%
    19:00 +26°C° 0.1 mm 1 mps 690 mmHg 72%
    20:00 +25°C° 0.1 mm 1 mps 691 mmHg 77%
    21:00 +25°C° 0.1 mm 2 mps 691 mmHg 83%
    22:00 +24°C° 0.1 mm 2 mps 691 mmHg 88%
    23:00 +24°C° 0 mm 1 mps 691 mmHg 89%

    24 October, Tuesday

    Time Temperature Precipitation Wind Pressure Humidity
    00:00 +23°C° 0 mm 1 mps 691 mmHg 91%
    01:00 +23°C° 0 mm 1 mps 690 mmHg 93%
    02:00 +23°C° 0.1 mm 1 mps 690 mmHg 94%
    03:00 +22°C° 0.1 mm 1 mps 690 mmHg 94%
    04:00 +22°C° 0.1 mm 1 mps 690 mmHg 95%
    05:00 +22°C° 0.1 mm 1 mps 690 mmHg 94%
    06:00 +23°C° 0.1 mm 1 mps 691 mmHg 93%
    07:00 +23°C° 0.1 mm 1 mps 692 mmHg 92%
    08:00 +23°C° 0.2 mm 1 mps 692 mmHg 89%
    09:00 +24°C° 0.2 mm 1 mps 692 mmHg 86%
    10:00 +24°C° 0.2 mm 1 mps 692 mmHg 83%
    11:00 +27°C° 0 mm 1 mps 692 mmHg 74%
    12:00 +29°C° 0 mm 2 mps 691 mmHg 64%
    13:00 +31°C° 0 mm 2 mps 691 mmHg 54%
    14:00 +31°C° 0.2 mm 2 mps 690 mmHg 55%
    15:00 +31°C° 0.2 mm 1 mps 690 mmHg 55%
    16:00 +31°C° 0.2 mm 1 mps 690 mmHg 56%
    17:00 +28°C° 0.7 mm 1 mps 690 mmHg 66%
    18:00 +26°C° 0.7 mm 1 mps 690 mmHg 76%
    19:00 +24°C° 0.7 mm 1 mps 690 mmHg 86%
    20:00 +24°C° 0.1 mm 1 mps 691 mmHg 88%
    21:00 +23°C° 0.1 mm 1 mps 691 mmHg 90%
    22:00 +23°C° 0.1 mm 1 mps 691 mmHg 93%
    23:00 +23°C° 0.1 mm 1 mps 691 mmHg 94%

    25 October, Wednesday

    Time Temperature Precipitation Wind Pressure Humidity
    00:00 +23°C° 0.1 mm 1 mps 691 mmHg 95%
    01:00 +21°C° 0.1 mm 2 mps 691 mmHg 96%
    02:00 +21°C° 0.1 mm 2 mps 691 mmHg 95%
    03:00 +21°C° 0.1 mm 2 mps 691 mmHg 95%
    04:00 +21°C° 0.1 mm 2 mps 690 mmHg 94%
    05:00 +21°C° 0.1 mm 2 mps 691 mmHg 93%
    06:00 +21°C° 0.1 mm 2 mps 691 mmHg 92%
    07:00 +22°C° 0.1 mm 1 mps 692 mmHg 91%
    08:00 +24°C° 0.1 mm 2 mps 692 mmHg 79%
    09:00 +27°C° 0.1 mm 2 mps 693 mmHg 67%
    10:00 +30°C° 0.1 mm 2 mps 693 mmHg 55%
    11:00 +31°C° 0.3 mm 2 mps 692 mmHg 51%
    12:00 +34°C° 0.3 mm 2 mps 691 mmHg 46%
    13:00 +35°C° 0.3 mm 2 mps 691 mmHg 42%
    14:00 +34°C° 0 mm 2 mps 690 mmHg 44%
    15:00 +32°C° 0 mm 2 mps 690 mmHg 46%
    16:00 +32°C° 0 mm 2 mps 689 mmHg 48%
    17:00 +30°C° 0 mm 2 mps 690 mmHg 52%
    18:00 +28°C° 0 mm 1 mps 690 mmHg 57%
    19:00 +27°C° 0 mm 1 mps 690 mmHg 62%
    20:00 +26°C° 0 mm 1 mps 691 mmHg 67%
    21:00 +25°C° 0 mm 2 mps 691 mmHg 72%
    22:00 +24°C° 0 mm 2 mps 691 mmHg 77%
    23:00 +23°C° 0 mm 2 mps 691 mmHg 79%

    26 October, Thursday

    Time Temperature Precipitation Wind Pressure Humidity
    00:00 +22°C° 0 mm 1 mps 690 mmHg 82%
    01:00 +22°C° 0 mm 1 mps 690 mmHg 84%
    02:00 +21°C° 0 mm 1 mps 690 mmHg 86%
    03:00 +21°C° 0 mm 1 mps 690 mmHg 88%
    04:00 +20°C° 0 mm 1 mps 690 mmHg 89%
    05:00 +21°C° 0 mm 1 mps 691 mmHg 86%
    06:00 +22°C° 0 mm 1 mps 691 mmHg 82%
    07:00 +23°C° 0 mm 1 mps 692 mmHg 79%
    08:00 +25°C° 0 mm 2 mps 692 mmHg 68%
    09:00 +28°C° 0 mm 2 mps 692 mmHg 56%
    10:00 +31°C° 0 mm 2 mps 693 mmHg 45%
    11:00 +34°C° 0 mm 2 mps 692 mmHg 42%
    12:00 +35°C° 0 mm 2 mps 691 mmHg 38%
    13:00 +36°C° 0 mm 2 mps 691 mmHg 35%
    14:00 +35°C° 0 mm 2 mps 690 mmHg 38%
    15:00 +34°C° 0 mm 2 mps 690 mmHg 41%
    16:00 +32°C° 0 mm 2 mps 689 mmHg 45%
    17:00 +30°C° 0 mm 2 mps 690 mmHg 50%
    18:00 +28°C° 0 mm 2 mps 690 mmHg 55%
    19:00 +27°C° 0 mm 2 mps 690 mmHg 60%
    20:00 +26°C° 0 mm 2 mps 690 mmHg 65%
    21:00 +25°C° 0 mm 2 mps 690 mmHg 69%
    22:00 +24°C° 0 mm 1 mps 691 mmHg 73%
    23:00 +23°C° 0 mm 1 mps 690 mmHg 76%
    Show more